Regional Weather Roundup
Issued by NWS Goodland, KS

Home | Current Version | Previous Version | Graphics & Text | Print | Product List | Glossary On
Versions: 1 2 3 4 5 6 7 8 9 10 11 12 13 14 15 16 17 18 19 20 21 22 23 24 25 26 27 28 29 30 31 32 33 34 35 36 37 38 39 40 41 42 43 44 45 46 47 48 49 50
000
ASUS43 KGLD 212159
RWRGLD

GOODLAND FORECAST AREA HOURLY WEATHER ROUNDUP
NATIONAL WEATHER SERVICE GOODLAND KS
400 PM MDT SUN SEP 21 2014

...OFFICIAL OBSERVATIONS...

CITY           SKY/WX    TMP DP  RH WIND       PRES   REMARKS
GOODLAND KS    PTSUNNY   74  38  27 VRB3      30.30F
HILL CITY KS   SUNNY     79  37  22 E6        30.25F
IMPERIAL NEB   MOSUNNY   76  37  24 VRB6      30.28F
MCCOOK NEB     SUNNY     78  39  24 NE8       30.26F
AKRON CO       PTSUNNY   73  41  31 SE17G25   30.29F
BURLINGTON CO  MOSUNNY   75  37  25 E14G20    30.31F
LIMON CO       SUNNY     73  43  33 S21G26    30.32F
$$

...UNOFFICIAL OBSERVATIONS...

CITY           SKY/WX    TMP DP  RH WIND       PRES   REMARKS
COLBY KS       MOSUNNY   75  43  31 NE6       30.29F
GOVE KS          N/A     76  32  20 MISG        N/A
NORTON KS      SUNNY     79  30  17 N12       30.25S
SHARON SPRINGS   N/A     76  43  31 E6G13       N/A
WAKEENEY KS      N/A     80  37  20 MISG        N/A
TRENTON NEB      N/A     78  32  18 CALM        N/A
KIT CARSON CO    N/A     74  41  30 N7G18       N/A
YUMA CO          N/A     70  40  33 E8          N/A
$$



USA.gov is the U.S. government's official web portal to all federal, state and local government web resources and services.